COSMOS 252 DEB, 3784

Orbit data source: Space-Track

COSMOS 252 DEB, 3784 is space debris in LEO originally from a launch on Fri, 01 Nov 1968 UTC launched from the Tyuratam Missile And Space Complex (TTMTR). Debris objects in space refer to the collection of defunct objects orbiting the Earth. Examples of debris include non-operational satellites, rocket bodies, and fragments generated from explosions, collisions, or faulty payload assembly.

Loading next visibility...
Identifier
3784, 1968-097AW
Orbit
LEO
Country
Flag of CISCIS
Related business
Manufacturer
Unknown
Mission
Spacecraft
Bus & Motor
Unknown
Mass
Unknown
Launch date (UTC)
1968-11-01 (57 years ago)
Launch vehicle
Unknown
Launch site
Tyuratam Missile And Space Complex (TTMTR)
Object type
Payload
Rocket body
Debris
Shape & HBR
Unknown shape, 0.1 m
Radar Cross Section
Small (<0.1 m²)

Expand to show TLE details & history
Last TLE update: 11 hours ago

TLE from 11 hours ago
0 COSMOS 252 DEB
1  3784U 68097AW  26100.34647631  .00001008  00000-0  65927-3 0  9996
2  3784  62.2407 192.6499 0634741  49.0185 316.3981 13.36912237 60922
Epoch: 2026-04-10T08:18Z
TLE epoch observation values (Epoch: 2026-04-10T08:18:55.553Z)
Latitude
-0.00006°
Longitude
-130.66305°
Altitude
793.146 km
Speed
7.619 km/s
True Right ascension
12h 50m 35s
True Declination
0° 00' 00"
Sunlit
Object was in full shadow at epoch
Visualization orbit readout
Latitude
Unknown
Longitude
Unknown
Altitude
Unknown
Speed
Unknown
Apparent Right ascension
Unknown
Apparent Declination
Unknown
Sunlit
N/A
Visualization observer readout
Local Sidereal Time
01:35:40
Azimuth
Unknown
Elevation
Unknown
Doppler factor
Unknown
Orbital elements
Apogee altitude
1,595.7 km
Perigee altitude
643.853 km
Semi-major axis
7,497.914 km
Eccentricity
0.06347
Inclination
62.2407°
RAAN
192.6499°
Arg. of periapsis
49.0185°
True anomaly
311.08462°
Mean anomaly
316.3981°
Eccentric anomaly
313.77197°
Mean motion
3.34297 °/min
Orbital period
107.69 mins
BSTAR
0.00065927
Loading maneuver chart data...
Computing Atmospheric mass density...

Documentation

Showing up to 5 results
|